Regional Weather Roundup
Issued by NWS Bismarck, ND

Home | Current Version | Previous Version | Text Only | Print | Product List | Glossary On
Versions: 1 2 3 4 5 6 7 8 9 10 11 12 13 14 15 16 17 18 19 20 21 22 23 24 25 26 27 28 29 30 31 32 33 34 35 36 37 38 39 40 41 42 43 44 45 46 47 48 49 50
000
ASUS43 KBIS 270202
RWRBIS

NWR BROADCAST TEXT
NATIONAL WEATHER SERVICE BISMARCK ND
900 PM CDT WED JUL 26 2017

NOTE: "FAIR" INDICATES FEW OR NO CLOUDS BELOW 12,000 FEET WITH NO
SIGNIFICANT WEATHER AND/OR OBSTRUCTIONS TO VISIBILITY.


CITY           SKY/WX    TMP DP  RH WIND       PRES   REMARKS
WILLISTON      CLEAR     86  48  26 E9        30.05S
MINOT          CLEAR     76  55  48 NE6       30.10S
MINOT AFB      CLEAR     77  54  44 E7        30.09S
BISMARCK       CLEAR     79  52  38 E8        30.09S
DICKINSON      PTCLDY    77  55  46 E9        30.08R
GARRISON         N/A     77  53  43 E8        30.10S
HETTINGER ARPT CLEAR     81  51  35 SE13      30.10S
JAMESTOWN      CLEAR     72  61  68 N5        30.10R
HAZEN          FAIR      79  50  36 E6G12     30.10S
LINTON           N/A    N/A N/A N/A E5        30.11S
MANDAN         FAIR      75  52  43 E8        30.11R
STANLEY        FAIR      75  52  43 E8        30.13S
TIOGA          FAIR      77  48  36 E10       30.11S
WATFORD CITY   FAIR      81  52  36 E9        30.06S
$$

CITY           SKY/WX    TMP DP  RH WIND       PRES   REMARKS
GRAND FORKS    PTCLDY    73  63  70 NW3       30.06R
GRAND FORKS AF CLEAR     70  61  73 N3        30.07S
DEVILS LAKE    CLEAR     73  58  59 NE3       30.12R
FARGO          CLEAR     73  61  65 N6        30.05S
CAVALIER       FAIR      72  66  83 CALM      30.06S HAZE
GRAFTON        FAIR      73  61  64 N5        30.08S
GWINNER        CLEAR     72  63  73 CALM      30.08R
LANGDON        FAIR      72  64  78 CALM      30.11S
ROLLA            N/A     72  63  73 CALM      30.13S
$$

CITY           SKY/WX    TMP DP  RH WIND       PRES   REMARKS
ABERDEEN       CLEAR     75  62  64 E3        30.08R
MOBRIDGE       CLEAR     77  62  59 E7        30.06S
BUFFALO          N/A     83  51  33 S12       30.04S
RAPID CITY     MOCLDY    80  50  34 E9        30.13R
GLASGOW        MOCLDY    88  43  20 E13       29.99S
SIDNEY         CLEAR     85  52  32 E8        30.03S
WOLF POINT     PTCLDY    88  47  24 E12       30.00S
GLENDIVE       CLEAR     87  49  26 NE13      30.03S
MILES CITY     CLEAR     90  43  19 SE6       29.99F
BAKER          CLEAR     85  46  25 S14       30.07S
$$

CITY           SKY/WX    TMP DP  RH WIND       PRES   REMARKS
BILLINGS       CLOUDY    81  47  30 SW14      30.06R
GREAT FALLS    CLOUDY    87  36  16 E8        30.00S
$$




USA.gov is the U.S. government's official web portal to all federal, state and local government web resources and services.